This is the latest recevied weather packets stored in our database for station/object DM4WH-13. If no packets are shown the sender has not sent any weather packets the latest 10 day(s).
| Time | Temp. | Humidity | Pressure | Rain* | Wind** | Luminosity | Snow |
|---|---|---|---|---|---|---|---|
| 1777731676 | 27.22° C | 25% | 1021 hPa | 0 mm | 0.45 m/s, 72° | - | - |
| 1777731313 | 27.22° C | 23% | 1021.1 hPa | 0 mm | 0 m/s | - | - |
| 1777731026 | 27.22° C | 26% | 1021.2 hPa | 0 mm | 0.45 m/s, 112° | - | - |
| 1777730713 | 26.11° C | 25% | 1021.2 hPa | 0 mm | 0.45 m/s, 152° | - | - |
| 1777730426 | 26.11° C | 25% | 1021.3 hPa | 0 mm | 0.45 m/s, 284° | - | - |
| 1777730113 | 26.11° C | 29% | 1021.3 hPa | 0 mm | 0.45 m/s, 96° | - | - |
| 1777729826 | 25° C | 26% | 1021.4 hPa | 0 mm | 0.45 m/s, 60° | - | - |
| 1777729513 | 25° C | 24% | 1021.5 hPa | 0 mm | 0 m/s | - | - |
| 1777729226 | 26.11° C | 25% | 1021.6 hPa | 0 mm | 0.45 m/s, 149° | - | - |
| 1777728913 | 25° C | 26% | 1021.6 hPa | 0 mm | 0.45 m/s, 42° | - | - |
| 1777728626 | 25° C | 25% | 1021.7 hPa | 0 mm | 0.45 m/s, 36° | - | - |
| 1777728313 | 25° C | 27% | 1021.7 hPa | 0 mm | 0.45 m/s, 245° | - | - |
| 1777728026 | 25° C | 26% | 1021.9 hPa | 0 mm | 0.45 m/s, 300° | - | - |
| 1777727713 | 26.11° C | 27% | 1022 hPa | 0 mm | 0.89 m/s, 100° | - | - |
| 1777727426 | 26.11° C | 24% | 1022.1 hPa | 0 mm | 0.45 m/s, 357° | - | - |
| 1777727113 | 25° C | 28% | 1022.1 hPa | 0 mm | 0.45 m/s, 85° | - | - |
| 1777726826 | 25° C | 27% | 1022.2 hPa | 0 mm | 0.45 m/s, 117° | - | - |
| 1777726513 | 25° C | 25% | 1022.3 hPa | 0 mm | 0.89 m/s, 101° | - | - |
| 1777726226 | 25° C | 25% | 1022.4 hPa | 0 mm | 0.89 m/s, 41° | - | - |
| 1777725914 | 25° C | 26% | 1022.4 hPa | 0 mm | 0.45 m/s, 5° | - | - |
| 1777725626 | 25° C | 25% | 1022.4 hPa | 0 mm | 0 m/s | - | - |
| 1777725313 | 25° C | 27% | 1022.5 hPa | 0 mm | 0.89 m/s, 234° | - | - |
| 1777725038 | 25° C | 28% | 1022.6 hPa | 0 mm | 0.45 m/s, 230° | - | - |
| 1777724726 | 25° C | 27% | 1022.7 hPa | 0 mm | 0.45 m/s, 208° | - | - |
| 1777724413 | 25° C | 26% | 1022.7 hPa | 0 mm | 0.45 m/s, 35° | - | - |
* Rain latest hour (hover to see other rain measurements)
** Current wind speed in m/s (hover to see current wind gust speed)